| time (UTC) | temp F | wind direction | speed MPH | gust MPH | rain 1hr in | rain 24hr in | rain mn in | humidity % | barometer mb |
| 20260508190016 | 56 | 248 | 3.0 | 7.0 | 0.01 | 0.03 | 0.03 | 68 | 1011.4 |
| 20260508185516 | 56 | 225 | 4.0 | 9.0 | 0.01 | 0.03 | 0.03 | 68 | 1011.4 |
| 20260508185016 | 55 | 248 | 3.0 | 9.0 | 0.01 | 0.03 | 0.03 | 73 | 1011.4 |
| 20260508184516 | 55 | 248 | 3.0 | 6.0 | 0.01 | 0.03 | 0.03 | 74 | 1011.4 |
| 20260508184016 | 54 | 270 | 1.0 | 4.0 | 0.01 | 0.03 | 0.03 | 76 | 1011.3 |
| 20260508183517 | 53 | 248 | 2.0 | 5.0 | 0.01 | 0.03 | 0.03 | 79 | 1011.3 |
| 20260508183016 | 53 | 270 | 1.0 | 4.0 | 0.01 | 0.03 | 0.03 | 79 | 1011.4 |
| 20260508182516 | 53 | 248 | 2.0 | 5.0 | 0.01 | 0.03 | 0.03 | 77 | 1011.4 |
| 20260508182016 | 53 | 270 | 2.0 | 7.0 | 0.01 | 0.03 | 0.03 | 75 | 1011.4 |
| 20260508181516 | 54 | 293 | 3.0 | 9.0 | 0.01 | 0.03 | 0.03 | 74 | 1011.6 |
| 20260508181016 | 55 | 270 | 2.0 | 7.0 | 0.00 | 0.02 | 0.02 | 71 | 1011.6 |
| 20260508180516 | 56 | 315 | 2.0 | 4.0 | 0.00 | 0.02 | 0.02 | 65 | 1011.4 |
| 20260508180016 | 56 | 293 | 4.0 | 9.0 | 0.00 | 0.02 | 0.02 | 61 | 1011.3 |
| 20260508175516 | 57 | 248 | 4.0 | 7.0 | 0.00 | 0.02 | 0.02 | 60 | 1011.2 |
| 20260508175016 | 57 | 248 | 4.0 | 9.0 | 0.00 | 0.02 | 0.02 | 57 | 1011.0 |
| 20260508174516 | 57 | 225 | 5.0 | 11.0 | 0.00 | 0.02 | 0.02 | 57 | 1010.8 |
| 20260508174016 | 58 | 203 | 4.0 | 10.0 | 0.00 | 0.02 | 0.02 | 57 | 1010.8 |
| 20260508173516 | 59 | 203 | 6.0 | 12.0 | 0.00 | 0.02 | 0.02 | 55 | 1010.9 |
| 20260508173016 | 60 | 180 | 4.0 | 11.0 | 0.00 | 0.02 | 0.02 | 55 | 1010.9 |
| 20260508172516 | 60 | 225 | 4.0 | 9.0 | 0.00 | 0.02 | 0.02 | 60 | 1010.9 |
| 20260508172015 | 59 | 225 | 3.0 | 8.0 | 0.00 | 0.02 | 0.02 | 61 | 1010.9 |
| 20260508171516 | 58 | 270 | 4.0 | 9.0 | 0.00 | 0.02 | 0.02 | 58 | 1011.1 |
| 20260508171016 | 56 | 225 | 5.0 | 12.0 | 0.00 | 0.02 | 0.02 | 63 | 1011.3 |
| 20260508170515 | 56 | 248 | 4.0 | 10.0 | 0.00 | 0.02 | 0.02 | 60 | 1011.5 |
| 20260508170017 | 56 | 225 | 4.0 | 10.0 | 0.00 | 0.02 | 0.02 | 58 | 1011.4 |
| 20260508165516 | 57 | 225 | 1.0 | 4.0 | 0.00 | 0.02 | 0.02 | 59 | 1011.4 |
| 20260508165015 | 57 | 225 | 4.0 | 7.0 | 0.00 | 0.02 | 0.02 | 58 | 1011.4 |
| 20260508164516 | 57 | 248 | 4.0 | 11.0 | 0.00 | 0.02 | 0.02 | 61 | 1011.4 |
| 20260508164016 | 56 | 248 | 6.0 | 10.0 | 0.00 | 0.02 | 0.02 | 62 | 1011.6 |
| 20260508163516 | 56 | 225 | 5.0 | 11.0 | 0.00 | 0.02 | 0.02 | 61 | 1011.5 |
| 20260508163016 | 55 | 248 | 3.0 | 7.0 | 0.00 | 0.02 | 0.02 | 63 | 1011.7 |
| 20260508162516 | 55 | 248 | 3.0 | 8.0 | 0.00 | 0.02 | 0.02 | 62 | 1011.6 |
| 20260508162015 | 55 | 225 | 3.0 | 8.0 | 0.00 | 0.02 | 0.02 | 62 | 1011.7 |
| 20260508161515 | 55 | 203 | 3.0 | 6.0 | 0.00 | 0.02 | 0.02 | 62 | 1011.7 |
| 20260508161015 | 55 | 248 | 2.0 | 9.0 | 0.00 | 0.02 | 0.02 | 62 | 1011.7 |
| 20260508160515 | 55 | 225 | 4.0 | 7.0 | 0.00 | 0.02 | 0.02 | 61 | 1011.7 |
| 20260508160015 | 55 | 248 | 4.0 | 9.0 | 0.00 | 0.02 | 0.02 | 59 | 1011.7 |
| 20260508155515 | 55 | 225 | 4.0 | 8.0 | 0.00 | 0.02 | 0.02 | 60 | 1011.8 |
| 20260508155015 | 56 | 225 | 5.0 | 12.0 | 0.00 | 0.02 | 0.02 | 60 | 1011.9 |
| 20260508154515 | 56 | 248 | 4.0 | 13.0 | 0.00 | 0.02 | 0.02 | 61 | 1011.9 |
| 20260508154015 | 56 | 225 | 3.0 | 7.0 | 0.00 | 0.02 | 0.02 | 61 | 1011.8 |
| 20260508153515 | 56 | 225 | 4.0 | 9.0 | 0.00 | 0.02 | 0.02 | 59 | 1011.8 |
| 20260508153015 | 57 | 248 | 3.0 | 4.0 | 0.00 | 0.02 | 0.02 | 61 | 1011.8 |
| 20260508152516 | 57 | 203 | 4.0 | 10.0 | 0.00 | 0.02 | 0.02 | 59 | 1011.8 |
| 20260508152015 | 57 | 248 | 3.0 | 9.0 | 0.00 | 0.02 | 0.02 | 60 | 1011.8 |
| 20260508151515 | 57 | 248 | 4.0 | 10.0 | 0.00 | 0.02 | 0.02 | 59 | 1011.7 |
| 20260508151015 | 57 | 203 | 2.0 | 7.0 | 0.00 | 0.02 | 0.02 | 59 | 1011.7 |
| 20260508150515 | 57 | 203 | 3.0 | 8.0 | 0.00 | 0.02 | 0.02 | 58 | 1011.8 |
| 20260508150015 | 58 | 225 | 4.0 | 7.0 | 0.00 | 0.02 | 0.02 | 59 | 1011.8 |
| 20260508145515 | 58 | 225 | 3.0 | 10.0 | 0.00 | 0.02 | 0.02 | 56 | 1011.8 |
| 20260508145015 | 58 | 270 | 3.0 | 7.0 | 0.00 | 0.02 | 0.02 | 58 | 1011.9 |
| 20260508144515 | 58 | 225 | 3.0 | 9.0 | 0.00 | 0.02 | 0.02 | 56 | 1011.9 |
| 20260508144015 | 58 | 225 | 4.0 | 7.0 | 0.00 | 0.02 | 0.02 | 60 | 1011.9 |
| 20260508143515 | 57 | 203 | 2.0 | 5.0 | 0.00 | 0.02 | 0.02 | 62 | 1012.0 |
| 20260508143015 | 57 | 225 | 3.0 | 7.0 | 0.00 | 0.02 | 0.02 | 63 | 1012.1 |
| 20260508142515 | 56 | 0 | 2.0 | 9.0 | 0.00 | 0.02 | 0.02 | 64 | 1012.0 |
| 20260508142015 | 56 | 248 | 3.0 | 8.0 | 0.00 | 0.02 | 0.02 | 65 | 1012.2 |
| 20260508141515 | 56 | 248 | 3.0 | 6.0 | 0.00 | 0.02 | 0.02 | 65 | 1012.3 |
| 20260508141015 | 56 | 248 | 3.0 | 7.0 | 0.00 | 0.02 | 0.02 | 66 | 1012.3 |
| 20260508140515 | 57 | 270 | 3.0 | 7.0 | 0.00 | 0.02 | 0.02 | 62 | 1012.3 |
| 20260508140015 | 57 | 248 | 4.0 | 8.0 | 0.00 | 0.02 | 0.02 | 66 | 1012.3 |
| 20260508135515 | 57 | 225 | 4.0 | 8.0 | 0.00 | 0.02 | 0.02 | 69 | 1012.3 |
| 20260508135015 | 56 | 225 | 4.0 | 8.0 | 0.00 | 0.02 | 0.02 | 69 | 1012.3 |
| 20260508134515 | 56 | 225 | 2.0 | 7.0 | 0.00 | 0.02 | 0.02 | 67 | 1012.3 |
| 20260508134015 | 56 | 270 | 3.0 | 8.0 | 0.00 | 0.02 | 0.02 | 69 | 1012.2 |
| 20260508133515 | 55 | 203 | 3.0 | 10.0 | 0.00 | 0.02 | 0.02 | 69 | 1012.2 |
| 20260508133015 | 55 | 225 | 3.0 | 6.0 | 0.00 | 0.02 | 0.02 | 71 | 1012.3 |
| 20260508132515 | 55 | 225 | 3.0 | 7.0 | 0.00 | 0.02 | 0.02 | 72 | 1012.2 |
| 20260508132015 | 54 | 248 | 3.0 | 6.0 | 0.00 | 0.02 | 0.02 | 72 | 1012.2 |
| 20260508131516 | 54 | 225 | 3.0 | 7.0 | 0.00 | 0.02 | 0.02 | 72 | 1012.3 |
| 20260508131015 | 54 | 248 | 3.0 | 5.0 | 0.00 | 0.02 | 0.02 | 75 | 1012.3 |
| 20260508130515 | 54 | 225 | 3.0 | 7.0 | 0.00 | 0.02 | 0.02 | 72 | 1012.3 |
| 20260508130015 | 54 | 248 | 2.0 | 6.0 | 0.00 | 0.02 | 0.02 | 73 | 1012.4 |
| 20260508125515 | 53 | 248 | 2.0 | 5.0 | 0.00 | 0.02 | 0.02 | 72 | 1012.5 |
| 20260508125015 | 53 | 225 | 4.0 | 8.0 | 0.00 | 0.02 | 0.02 | 75 | 1012.5 |
| 20260508124515 | 53 | 225 | 4.0 | 8.0 | 0.00 | 0.02 | 0.02 | 76 | 1012.5 |
| 20260508124015 | 53 | 225 | 3.0 | 8.0 | 0.00 | 0.02 | 0.02 | 78 | 1012.5 |
| 20260508123515 | 52 | 248 | 3.0 | 6.0 | 0.00 | 0.02 | 0.02 | 77 | 1012.4 |
| 20260508123015 | 52 | 248 | 2.0 | 5.0 | 0.00 | 0.02 | 0.02 | 79 | 1012.3 |
| 20260508122515 | 51 | 293 | 3.0 | 7.0 | 0.00 | 0.02 | 0.02 | 79 | 1012.3 |
| 20260508122015 | 50 | 293 | 2.0 | 4.0 | 0.00 | 0.02 | 0.02 | 82 | 1012.2 |
| 20260508121515 | 49 | 293 | 1.0 | 3.0 | 0.00 | 0.02 | 0.02 | 85 | 1012.1 |
| 20260508121015 | 48 | 293 | 3.0 | 10.0 | 0.00 | 0.02 | 0.02 | 84 | 1011.9 |
| 20260508120515 | 48 | 248 | 2.0 | 8.0 | 0.00 | 0.02 | 0.02 | 86 | 1012.3 |
| 20260508120016 | 47 | 248 | 2.0 | 7.0 | 0.00 | 0.02 | 0.02 | 90 | 1012.4 |
| 20260508115515 | 46 | 270 | 2.0 | 6.0 | 0.00 | 0.02 | 0.02 | 93 | 1012.5 |
| 20260508115015 | 45 | 248 | 3.0 | 6.0 | 0.00 | 0.02 | 0.02 | 94 | 1012.6 |
| 20260508114515 | 45 | 248 | 2.0 | 6.0 | 0.00 | 0.02 | 0.02 | 95 | 1012.5 |
| 20260508114022 | 44 | 248 | 2.0 | 4.0 | 0.00 | 0.02 | 0.02 | 95 | 1012.4 |
| 20260508113515 | 44 | 248 | 3.0 | 5.0 | 0.00 | 0.02 | 0.02 | 96 | 1012.5 |
| 20260508113015 | 43 | 180 | 2.0 | 4.0 | 0.00 | 0.02 | 0.02 | 96 | 1012.4 |
| 20260508112515 | 43 | 225 | 1.0 | 5.0 | 0.00 | 0.02 | 0.02 | 96 | 1012.5 |
| 20260508112015 | 42 | 225 | 2.0 | 5.0 | 0.00 | 0.02 | 0.02 | 96 | 1012.5 |
| 20260508111515 | 42 | 248 | 2.0 | 4.0 | 0.00 | 0.02 | 0.02 | 96 | 1012.5 |
| 20260508111015 | 41 | 225 | 2.0 | 4.0 | 0.00 | 0.02 | 0.02 | 96 | 1012.4 |
| 20260508110515 | 40 | 0.0 | 3.0 | 0.00 | 0.02 | 0.02 | 96 | 1012.3 | |
| 20260508110015 | 40 | 0.0 | 0.0 | 0.00 | 0.02 | 0.02 | 95 | 1012.2 | |
| 20260508105515 | 40 | 0.0 | 0.0 | 0.00 | 0.02 | 0.02 | 95 | 1012.1 | |
| 20260508105015 | 40 | 0.0 | 0.0 | 0.00 | 0.02 | 0.02 | 94 | 1011.9 | |
| 20260508104515 | 40 | 0.0 | 0.0 | 0.00 | 0.02 | 0.02 | 95 | 1011.8 | |
| 20260508104015 | 40 | 0.0 | 0.0 | 0.00 | 0.02 | 0.02 | 94 | 1011.8 | |
| 20260508103515 | 40 | 0.0 | 0.0 | 0.00 | 0.02 | 0.02 | 94 | 1011.9 | |
| 20260508103015 | 40 | 0.0 | 0.0 | 0.00 | 0.02 | 0.02 | 94 | 1011.9 | |
| 20260508102515 | 40 | 0.0 | 0.0 | 0.00 | 0.02 | 0.02 | 94 | 1011.8 | |
| 20260508102015 | 40 | 0.0 | 0.0 | 0.00 | 0.02 | 0.02 | 94 | 1011.8 | |
| 20260508101517 | 40 | 0.0 | 0.0 | 0.00 | 0.02 | 0.02 | 94 | 1011.8 | |
| 20260508101017 | 40 | 0.0 | 0.0 | 0.00 | 0.02 | 0.02 | 94 | 1011.8 | |
| 20260508100517 | 40 | 0.0 | 0.0 | 0.00 | 0.02 | 0.02 | 94 | 1011.8 | |
| 20260508100017 | 40 | 0.0 | 0.0 | 0.00 | 0.02 | 0.02 | 94 | 1011.8 | |
| 20260508095517 | 40 | 0.0 | 0.0 | 0.00 | 0.02 | 0.02 | 94 | 1011.8 | |
| 20260508095017 | 41 | 0.0 | 0.0 | 0.00 | 0.02 | 0.02 | 93 | 1011.7 | |
| 20260508094517 | 41 | 0.0 | 0.0 | 0.00 | 0.02 | 0.02 | 93 | 1011.6 | |
| 20260508094017 | 41 | 0.0 | 0.0 | 0.00 | 0.02 | 0.02 | 94 | 1011.6 | |
| 20260508093517 | 41 | 0.0 | 0.0 | 0.00 | 0.02 | 0.02 | 93 | 1011.7 | |
| 20260508093017 | 41 | 0.0 | 2.0 | 0.00 | 0.02 | 0.02 | 93 | 1011.6 | |
| 20260508092517 | 41 | 0.0 | 2.0 | 0.00 | 0.02 | 0.02 | 93 | 1011.6 | |
| 20260508092017 | 41 | 0.0 | 0.0 | 0.00 | 0.02 | 0.02 | 93 | 1011.6 | |
| 20260508091517 | 41 | 0.0 | 4.0 | 0.00 | 0.02 | 0.02 | 93 | 1011.5 | |
| 20260508091017 | 41 | 0.0 | 0.0 | 0.00 | 0.02 | 0.02 | 93 | 1011.5 | |
| 20260508090517 | 42 | 0.0 | 0.0 | 0.00 | 0.02 | 0.02 | 93 | 1011.5 | |
| 20260508090017 | 42 | 0.0 | 0.0 | 0.00 | 0.02 | 0.02 | 93 | 1011.5 | |
| 20260508085517 | 42 | 0.0 | 0.0 | 0.00 | 0.02 | 0.02 | 93 | 1011.5 | |
| 20260508085016 | 42 | 0.0 | 0.0 | 0.00 | 0.02 | 0.02 | 93 | 1011.5 | |
| 20260508084517 | 42 | 0.0 | 2.0 | 0.00 | 0.02 | 0.02 | 93 | 1011.4 | |
| 20260508084018 | 42 | 203 | 1.0 | 3.0 | 0.00 | 0.02 | 0.02 | 93 | 1011.4 |
| 20260508083517 | 42 | 0.0 | 4.0 | 0.00 | 0.02 | 0.02 | 92 | 1011.3 | |
| 20260508083016 | 43 | 0.0 | 0.0 | 0.00 | 0.02 | 0.02 | 92 | 1011.4 | |
| 20260508082516 | 43 | 0.0 | 0.0 | 0.00 | 0.02 | 0.02 | 92 | 1011.4 | |
| 20260508082016 | 43 | 0.0 | 0.0 | 0.00 | 0.02 | 0.02 | 93 | 1011.4 | |
| 20260508081517 | 43 | 0.0 | 0.0 | 0.00 | 0.02 | 0.02 | 92 | 1011.4 | |
| 20260508081017 | 43 | 0.0 | 0.0 | 0.00 | 0.02 | 0.02 | 92 | 1011.4 | |
| 20260508080516 | 43 | 0.0 | 0.0 | 0.00 | 0.02 | 0.02 | 92 | 1011.5 | |
| 20260508080017 | 43 | 0.0 | 0.0 | 0.00 | 0.02 | 0.02 | 92 | 1011.4 | |
| 20260508075517 | 44 | 180 | 1.0 | 3.0 | 0.00 | 0.02 | 0.02 | 92 | 1011.4 |
| 20260508075016 | 44 | 180 | 1.0 | 3.0 | 0.00 | 0.02 | 0.02 | 92 | 1011.3 |
| 20260508074516 | 44 | 180 | 2.0 | 5.0 | 0.00 | 0.02 | 0.02 | 92 | 1011.2 |
| 20260508074017 | 44 | 0.0 | 3.0 | 0.00 | 0.02 | 0.02 | 92 | 1011.2 | |
| 20260508073516 | 44 | 203 | 1.0 | 3.0 | 0.00 | 0.02 | 0.02 | 92 | 1011.3 |
| 20260508073017 | 44 | 0.0 | 2.0 | 0.00 | 0.02 | 0.02 | 92 | 1011.2 | |
| 20260508072516 | 44 | 0.0 | 2.0 | 0.00 | 0.02 | 0.02 | 92 | 1011.2 | |
| 20260508072016 | 44 | 0.0 | 2.0 | 0.00 | 0.02 | 0.02 | 91 | 1011.3 | |
| 20260508071516 | 44 | 203 | 1.0 | 3.0 | 0.00 | 0.02 | 0.02 | 91 | 1011.3 |
| 20260508071016 | 44 | 203 | 1.0 | 4.0 | 0.00 | 0.02 | 0.02 | 91 | 1011.4 |
| 20260508070516 | 44 | 0.0 | 2.0 | 0.00 | 0.02 | 0.02 | 91 | 1011.4 | |
| 20260508070016 | 44 | 203 | 1.0 | 4.0 | 0.00 | 0.02 | 0.02 | 91 | 1011.4 |
| 20260508065516 | 45 | 203 | 1.0 | 6.0 | 0.00 | 0.02 | 0.02 | 91 | 1011.5 |
| 20260508065016 | 45 | 225 | 2.0 | 4.0 | 0.01 | 0.02 | 0.02 | 91 | 1011.6 |
| 20260508064516 | 45 | 270 | 1.0 | 3.0 | 0.01 | 0.02 | 0.02 | 90 | 1011.4 |
| 20260508064016 | 45 | 0.0 | 1.0 | 0.01 | 0.02 | 0.02 | 90 | 1011.2 | |
| 20260508063516 | 45 | 0.0 | 2.0 | 0.02 | 0.02 | 0.02 | 90 | 1011.3 | |
| 20260508063016 | 45 | 270 | 1.0 | 3.0 | 0.02 | 0.02 | 0.02 | 89 | 1011.5 |
| 20260508062516 | 45 | 0.0 | 3.0 | 0.02 | 0.02 | 0.02 | 89 | 1011.5 | |
| 20260508062016 | 45 | 0.0 | 2.0 | 0.02 | 0.02 | 0.02 | 89 | 1011.4 | |
| 20260508061516 | 45 | 0.0 | 2.0 | 0.02 | 0.03 | 0.02 | 87 | 1011.6 | |
| 20260508061016 | 45 | 0.0 | 2.0 | 0.02 | 0.03 | 0.02 | 87 | 1011.6 | |
| 20260508060517 | 45 | 270 | 2.0 | 6.0 | 0.02 | 0.03 | 0.02 | 86 | 1011.7 |
| 20260508060016 | 46 | 248 | 1.0 | 7.0 | 0.02 | 0.03 | 0.02 | 86 | 1011.8 |
| 20260508055516 | 46 | 270 | 2.0 | 7.0 | 0.02 | 0.03 | 0.02 | 85 | 1011.9 |
| 20260508055016 | 46 | 270 | 3.0 | 7.0 | 0.01 | 0.02 | 0.01 | 85 | 1011.9 |
| 20260508054516 | 46 | 270 | 4.0 | 8.0 | 0.01 | 0.03 | 0.01 | 84 | 1011.9 |
| 20260508054016 | 46 | 270 | 5.0 | 15.0 | 0.01 | 0.03 | 0.01 | 85 | 1011.8 |
| 20260508053516 | 46 | 293 | 2.0 | 3.0 | 0.00 | 0.02 | 0.00 | 86 | 1011.7 |
| 20260508053016 | 46 | 270 | 2.0 | 6.0 | 0.00 | 0.02 | 0.00 | 87 | 1011.3 |
| 20260508052516 | 46 | 203 | 1.0 | 3.0 | 0.00 | 0.02 | 0.00 | 86 | 1010.9 |
| 20260508052016 | 46 | 0.0 | 2.0 | 0.00 | 0.02 | 0.00 | 86 | 1010.7 | |
| 20260508051516 | 46 | 0.0 | 2.0 | 0.00 | 0.02 | 0.00 | 83 | 1010.7 | |
| 20260508051016 | 46 | 0.0 | 2.0 | 0.00 | 0.02 | 0.00 | 82 | 1010.4 | |
| 20260508050516 | 46 | 0.0 | 3.0 | 0.00 | 0.02 | 0.00 | 82 | 1010.1 | |
| 20260508050016 | 46 | 203 | 1.0 | 3.0 | 0.00 | 0.02 | 0.00 | 82 | 1010.0 |
| 20260508045516 | 46 | 269 | 0.0 | 0.0 | 0.00 | 0.02 | 0.00 | 81 | 1010.0 |
| 20260508045016 | 46 | 270 | 1.0 | 2.0 | 0.00 | 0.02 | 0.00 | 80 | 1009.9 |
| 20260508044516 | 46 | 0.0 | 2.0 | 0.00 | 0.02 | 0.00 | 80 | 1009.9 | |
| 20260508044016 | 46 | 0.0 | 0.0 | 0.00 | 0.02 | 0.00 | 83 | 1009.8 | |
| 20260508043516 | 45 | 0.0 | 0.0 | 0.00 | 0.02 | 0.00 | 84 | 1009.7 | |
| 20260508043016 | 45 | 0.0 | 0.0 | 0.00 | 0.02 | 0.00 | 85 | 1009.5 | |
| 20260508042516 | 45 | 0.0 | 0.0 | 0.00 | 0.02 | 0.00 | 84 | 1009.4 | |
| 20260508042016 | 45 | 0.0 | 0.0 | 0.00 | 0.02 | 0.00 | 81 | 1009.5 | |
| 20260508041516 | 45 | 0.0 | 0.0 | 0.00 | 0.02 | 0.00 | 83 | 1009.5 | |
| 20260508041016 | 45 | 0.0 | 0.0 | 0.00 | 0.02 | 0.00 | 83 | 1009.5 | |
| 20260508040516 | 45 | 0.0 | 0.0 | 0.00 | 0.02 | 0.00 | 83 | 1009.5 | |
| 20260508040016 | 44 | 0.0 | 0.0 | 0.00 | 0.02 | 0.02 | 84 | 1009.7 | |
| 20260508035515 | 44 | 0.0 | 0.0 | 0.00 | 0.02 | 0.02 | 83 | 1009.7 | |
| 20260508035015 | 44 | 0.0 | 0.0 | 0.00 | 0.02 | 0.02 | 82 | 1009.6 | |
| 20260508034515 | 44 | 0.0 | 0.0 | 0.00 | 0.02 | 0.02 | 81 | 1009.6 | |
| 20260508034015 | 44 | 0.0 | 0.0 | 0.00 | 0.02 | 0.02 | 81 | 1009.5 | |
| 20260508033515 | 44 | 0.0 | 0.0 | 0.00 | 0.02 | 0.02 | 82 | 1009.5 | |
| 20260508033015 | 44 | 0.0 | 0.0 | 0.00 | 0.02 | 0.02 | 82 | 1009.5 | |
| 20260508032515 | 44 | 0.0 | 0.0 | 0.00 | 0.02 | 0.02 | 82 | 1009.6 | |
| 20260508032015 | 44 | 0.0 | 0.0 | 0.00 | 0.02 | 0.02 | 82 | 1009.6 | |
| 20260508031515 | 44 | 0.0 | 0.0 | 0.00 | 0.02 | 0.02 | 82 | 1009.6 | |
| 20260508031015 | 44 | 0.0 | 0.0 | 0.00 | 0.02 | 0.02 | 82 | 1009.6 | |
| 20260508030515 | 44 | 0.0 | 0.0 | 0.00 | 0.02 | 0.02 | 82 | 1009.5 | |
| 20260508030015 | 44 | 0.0 | 0.0 | 0.00 | 0.02 | 0.02 | 82 | 1009.6 | |
| 20260508025515 | 44 | 0.0 | 0.0 | 0.00 | 0.02 | 0.02 | 81 | 1009.6 | |
| 20260508025015 | 45 | 0.0 | 0.0 | 0.00 | 0.02 | 0.02 | 80 | 1009.6 | |
| 20260508024515 | 45 | 0.0 | 0.0 | 0.00 | 0.02 | 0.02 | 80 | 1009.5 | |
| 20260508024015 | 45 | 0.0 | 0.0 | 0.00 | 0.02 | 0.02 | 80 | 1009.6 | |
| 20260508023515 | 45 | 0.0 | 0.0 | 0.00 | 0.02 | 0.02 | 80 | 1009.5 | |
| 20260508023015 | 45 | 0.0 | 0.0 | 0.00 | 0.02 | 0.02 | 79 | 1009.5 | |
| 20260508022515 | 45 | 0.0 | 0.0 | 0.00 | 0.02 | 0.02 | 79 | 1009.5 | |
| 20260508022015 | 45 | 0.0 | 0.0 | 0.00 | 0.02 | 0.02 | 79 | 1009.5 | |
| 20260508021515 | 45 | 0.0 | 1.0 | 0.00 | 0.02 | 0.02 | 78 | 1009.6 | |
| 20260508021015 | 45 | 0.0 | 0.0 | 0.00 | 0.02 | 0.02 | 77 | 1009.6 | |
| 20260508020515 | 45 | 0.0 | 0.0 | 0.00 | 0.02 | 0.02 | 77 | 1009.5 | |
| 20260508020015 | 46 | 0.0 | 0.0 | 0.00 | 0.02 | 0.02 | 76 | 1009.5 | |
| 20260508015515 | 46 | 0.0 | 0.0 | 0.00 | 0.02 | 0.02 | 75 | 1009.5 | |
| 20260508015015 | 46 | 0.0 | 0.0 | 0.00 | 0.02 | 0.02 | 74 | 1009.5 | |
| 20260508014517 | 46 | 0.0 | 0.0 | 0.00 | 0.02 | 0.02 | 75 | 1009.4 | |
| 20260508014017 | 47 | 0.0 | 0.0 | 0.00 | 0.02 | 0.02 | 75 | 1009.3 | |
| 20260508013517 | 47 | 0.0 | 0.0 | 0.00 | 0.02 | 0.02 | 73 | 1009.3 | |
| 20260508013017 | 47 | 0.0 | 0.0 | 0.00 | 0.02 | 0.02 | 72 | 1009.3 | |
| 20260508012517 | 47 | 0.0 | 0.0 | 0.00 | 0.02 | 0.02 | 69 | 1009.2 | |
| 20260508012017 | 48 | 0.0 | 0.0 | 0.00 | 0.02 | 0.02 | 68 | 1009.3 | |
| 20260508011517 | 48 | 0.0 | 0.0 | 0.00 | 0.02 | 0.02 | 68 | 1009.3 | |
| 20260508011017 | 49 | 0.0 | 0.0 | 0.00 | 0.02 | 0.02 | 66 | 1009.3 | |
| 20260508010517 | 49 | 0.0 | 0.0 | 0.00 | 0.02 | 0.02 | 65 | 1009.1 | |
| 20260508010017 | 49 | 0.0 | 0.0 | 0.00 | 0.02 | 0.02 | 64 | 1009.0 | |
| 20260508005517 | 50 | 0.0 | 0.0 | 0.00 | 0.02 | 0.02 | 62 | 1009.0 | |
| 20260508005017 | 50 | 0.0 | 0.0 | 0.00 | 0.02 | 0.02 | 61 | 1008.8 | |
| 20260508004517 | 50 | 0.0 | 0.0 | 0.00 | 0.02 | 0.02 | 59 | 1008.7 | |
| 20260508004017 | 51 | 0.0 | 0.0 | 0.00 | 0.02 | 0.02 | 59 | 1008.8 | |
| 20260508003517 | 51 | 0.0 | 0.0 | 0.00 | 0.02 | 0.02 | 59 | 1008.7 | |
| 20260508003017 | 52 | 0.0 | 0.0 | 0.00 | 0.02 | 0.02 | 59 | 1008.7 | |
| 20260508002517 | 52 | 0.0 | 0.0 | 0.00 | 0.02 | 0.02 | 58 | 1008.6 | |
| 20260508002017 | 53 | 0.0 | 0.0 | 0.00 | 0.02 | 0.02 | 57 | 1008.5 | |
| 20260508001517 | 53 | 0.0 | 0.0 | 0.00 | 0.02 | 0.02 | 58 | 1008.5 | |
| 20260508001017 | 53 | 0.0 | 0.0 | 0.00 | 0.02 | 0.02 | 55 | 1008.4 | |
| 20260508000517 | 54 | 0.0 | 0.0 | 0.00 | 0.02 | 0.02 | 56 | 1008.3 | |
| 20260508000016 | 54 | 0.0 | 0.0 | 0.00 | 0.02 | 0.02 | 52 | 1008.2 | |
| 20260507235517 | 55 | 0.0 | 0.0 | 0.00 | 0.02 | 0.02 | 54 | 1008.2 | |
| 20260507235016 | 55 | 0.0 | 0.0 | 0.00 | 0.03 | 0.02 | 51 | 1008.2 | |
| 20260507234516 | 56 | 0.0 | 0.0 | 0.00 | 0.03 | 0.02 | 54 | 1008.3 | |
| 20260507234016 | 57 | 0.0 | 2.0 | 0.00 | 0.04 | 0.02 | 55 | 1008.3 | |
| 20260507233516 | 57 | 0.0 | 0.0 | 0.00 | 0.04 | 0.02 | 54 | 1008.3 | |
| 20260507233017 | 57 | 0.0 | 2.0 | 0.00 | 0.04 | 0.02 | 49 | 1008.2 | |
| 20260507232517 | 58 | 0.0 | 2.0 | 0.00 | 0.04 | 0.02 | 51 | 1008.0 | |
| 20260507232016 | 58 | 0.0 | 1.0 | 0.00 | 0.04 | 0.02 | 46 | 1008.0 | |
| 20260507231516 | 58 | 0.0 | 2.0 | 0.00 | 0.04 | 0.02 | 45 | 1008.0 | |
| 20260507231016 | 58 | 0.0 | 2.0 | 0.00 | 0.04 | 0.02 | 46 | 1008.0 | |
| 20260507230516 | 59 | 270 | 1.0 | 2.0 | 0.00 | 0.04 | 0.02 | 43 | 1007.9 |
| 20260507230017 | 59 | 270 | 1.0 | 4.0 | 0.00 | 0.04 | 0.02 | 45 | 1007.9 |
| 20260507225516 | 59 | 293 | 1.0 | 3.0 | 0.00 | 0.04 | 0.02 | 42 | 1007.9 |
| 20260507225016 | 59 | 270 | 3.0 | 7.0 | 0.00 | 0.04 | 0.02 | 43 | 1008.0 |
| 20260507224516 | 59 | 248 | 1.0 | 5.0 | 0.00 | 0.04 | 0.02 | 43 | 1007.8 |
| 20260507224016 | 60 | 293 | 3.0 | 9.0 | 0.00 | 0.04 | 0.02 | 42 | 1007.9 |
| 20260507223516 | 60 | 315 | 2.0 | 7.0 | 0.00 | 0.04 | 0.02 | 40 | 1007.9 |
| 20260507223016 | 60 | 293 | 1.0 | 3.0 | 0.00 | 0.04 | 0.02 | 40 | 1008.0 |
| 20260507222516 | 60 | 315 | 3.0 | 6.0 | 0.00 | 0.04 | 0.02 | 39 | 1008.0 |
| 20260507222016 | 61 | 293 | 2.0 | 3.0 | 0.00 | 0.04 | 0.02 | 40 | 1008.0 |
| 20260507221516 | 61 | 293 | 2.0 | 5.0 | 0.00 | 0.04 | 0.02 | 41 | 1008.1 |
| 20260507221016 | 62 | 293 | 2.0 | 8.0 | 0.00 | 0.04 | 0.02 | 39 | 1008.1 |
| 20260507220516 | 62 | 270 | 2.0 | 7.0 | 0.00 | 0.04 | 0.02 | 39 | 1008.1 |
| 20260507220016 | 63 | 293 | 4.0 | 7.0 | 0.00 | 0.04 | 0.02 | 39 | 1008.2 |
| 20260507215516 | 63 | 293 | 4.0 | 9.0 | 0.00 | 0.04 | 0.02 | 39 | 1008.2 |
| 20260507215016 | 63 | 270 | 3.0 | 8.0 | 0.00 | 0.04 | 0.02 | 39 | 1008.2 |
| 20260507214516 | 63 | 293 | 3.0 | 11.0 | 0.00 | 0.04 | 0.02 | 39 | 1008.2 |
| 20260507214016 | 63 | 270 | 2.0 | 7.0 | 0.00 | 0.04 | 0.02 | 39 | 1008.1 |
| 20260507213516 | 63 | 293 | 3.0 | 9.0 | 0.00 | 0.04 | 0.02 | 37 | 1008.1 |
| 20260507213016 | 64 | 270 | 3.0 | 9.0 | 0.00 | 0.04 | 0.02 | 36 | 1008.0 |
| 20260507212516 | 65 | 315 | 3.0 | 9.0 | 0.00 | 0.04 | 0.02 | 35 | 1008.0 |
| 20260507212016 | 66 | 315 | 2.0 | 7.0 | 0.00 | 0.04 | 0.02 | 35 | 1007.9 |
| 20260507211516 | 66 | 315 | 3.0 | 8.0 | 0.00 | 0.04 | 0.02 | 36 | 1007.9 |
| 20260507211016 | 66 | 270 | 3.0 | 9.0 | 0.00 | 0.04 | 0.02 | 38 | 1007.8 |
| 20260507210516 | 66 | 270 | 6.0 | 12.0 | 0.00 | 0.04 | 0.02 | 35 | 1007.8 |
| 20260507210016 | 66 | 293 | 5.0 | 11.0 | 0.00 | 0.04 | 0.02 | 37 | 1007.7 |
| 20260507205516 | 66 | 270 | 4.0 | 9.0 | 0.00 | 0.04 | 0.02 | 38 | 1007.7 |
| 20260507205016 | 66 | 270 | 4.0 | 16.0 | 0.00 | 0.04 | 0.02 | 36 | 1007.8 |
| 20260507204516 | 66 | 225 | 2.0 | 7.0 | 0.00 | 0.04 | 0.02 | 37 | 1007.8 |
| 20260507204016 | 66 | 338 | 3.0 | 8.0 | 0.00 | 0.04 | 0.02 | 39 | 1007.8 |
| 20260507203516 | 65 | 270 | 3.0 | 7.0 | 0.00 | 0.04 | 0.02 | 38 | 1007.8 |
| 20260507203016 | 65 | 338 | 1.0 | 3.0 | 0.00 | 0.04 | 0.02 | 40 | 1007.8 |
| 20260507202516 | 64 | 248 | 4.0 | 7.0 | 0.00 | 0.04 | 0.02 | 40 | 1007.7 |
| 20260507202016 | 63 | 293 | 4.0 | 9.0 | 0.00 | 0.05 | 0.02 | 42 | 1007.8 |
| 20260507201516 | 63 | 293 | 3.0 | 9.0 | 0.00 | 0.05 | 0.02 | 39 | 1007.8 |
| 20260507201016 | 64 | 293 | 4.0 | 9.0 | 0.00 | 0.05 | 0.02 | 38 | 1007.9 |
| 20260507200516 | 64 | 315 | 4.0 | 9.0 | 0.00 | 0.06 | 0.02 | 38 | 1007.8 |
| 20260507200016 | 65 | 315 | 3.0 | 10.0 | 0.00 | 0.06 | 0.02 | 38 | 1007.7 |
| 20260507195516 | 65 | 293 | 3.0 | 7.0 | 0.00 | 0.07 | 0.02 | 37 | 1007.9 |
| 20260507195016 | 67 | 315 | 3.0 | 7.0 | 0.00 | 0.07 | 0.02 | 36 | 1007.9 |
| 20260507194516 | 67 | 0 | 3.0 | 9.0 | 0.00 | 0.07 | 0.02 | 39 | 1007.9 |
| 20260507194016 | 66 | 315 | 3.0 | 10.0 | 0.00 | 0.07 | 0.02 | 40 | 1007.9 |
| 20260507193516 | 66 | 293 | 3.0 | 9.0 | 0.00 | 0.07 | 0.02 | 37 | 1007.9 |
| 20260507193016 | 66 | 225 | 4.0 | 9.0 | 0.00 | 0.07 | 0.02 | 39 | 1008.1 |
| 20260507192516 | 66 | 315 | 4.0 | 10.0 | 0.00 | 0.08 | 0.02 | 36 | 1008.2 |
| 20260507192016 | 66 | 225 | 4.0 | 9.0 | 0.00 | 0.08 | 0.02 | 40 | 1008.3 |
| 20260507191516 | 65 | 270 | 2.0 | 7.0 | 0.00 | 0.08 | 0.02 | 45 | 1008.4 |
| 20260507191016 | 64 | 248 | 3.0 | 6.0 | 0.00 | 0.08 | 0.02 | 44 | 1008.3 |
| 20260507190516 | 63 | 248 | 2.0 | 7.0 | 0.00 | 0.08 | 0.02 | 42 | 1008.5 |